Big Rapids, MI

9:56 PM EST on January 20, 2017 (GMT -0500)
Roben-Hood

Weather History for KRQB - October, 2013

Change the Weather History Date:

Wednesday, October 9, 2013

  Actual Average Record
Temperature  
Mean Temperature 56 °F -  
Max Temperature 69 °F 58 °F 78 °F (2011)
Min Temperature 42 °F 38 °F 19 °F (1989)
Degree Days  
Heating Degree Days 10    
Growing Degree Days 6 (Base 50)    
Moisture  
Dew Point 46 °F    
Average Humidity 74    
Maximum Humidity 100    
Minimum Humidity 44    
Precipitation  
Precipitation 0.00 in - - ()
Sea Level Pressure  
Sea Level Pressure 30.24 in    
Wind  
Wind Speed 4 mph (South)    
Max Wind Speed 10 mph    
Max Gust Speed 18 mph    
Visibility 10 miles    
Events      
Averages and records for this station are not official NWS values.
T = Trace of Precipitation, MM = Missing Value Source: NWS Daily Summary

Daily Weather History Graph

Daily Weather History Graph

Search for Another Location

Airport or City:

Trip Planner

Search our weather history database for the weather conditions in past years. The results will help you decide how hot, cold, wet, or windy it might be!

Date:

Astronomy

Oct. 09, 2013 Rise Set
Actual Time 7:49 AM EDT 7:08 PM EDT
Civil Twilight 7:20 AM EDT 7:37 PM EDT
Nautical Twilight 6:47 AM EDT 8:10 PM EDT
Astronomical Twilight 6:13 AM EDT 8:43 PM EDT
Moon 12:51 PM EDT (10/9) 10:34 PM EDT (10/9)
Length of Visible Light 12h 16m
Length of Day
11h 19m
Waxing Crescent, 25% of the Moon is Illuminated
Oct 9
Waxing Crescent
Oct 11
First Quarter
Oct 18
Full
Oct 26
Last Quarter
Nov 3
New

Hourly Weather History & Observations

Time (EDT) Temp. Dew Point Humidity Pressure Visibility Wind Dir Wind Speed Gust Speed Precip Events Conditions
12:15 AM 54.7 °F 46.4 °F 74% 30.22 in 10.0 mi SSE 3.5 mph - N/A   Clear
12:34 AM 54.5 °F 46.0 °F 73% 30.21 in 10.0 mi South 4.6 mph - N/A   Clear
12:55 AM 54.7 °F 46.0 °F 73% 30.21 in 10.0 mi South 10.4 mph - N/A   Clear
1:15 AM 54.0 °F 45.9 °F 74% 30.21 in 10.0 mi South 4.6 mph - N/A   Clear
1:34 AM 52.9 °F 45.7 °F 77% 30.22 in 10.0 mi South 6.9 mph - N/A   Clear
1:55 AM 53.6 °F 45.7 °F 75% 30.22 in 10.0 mi SSE 6.9 mph - N/A   Clear
2:15 AM 53.2 °F 45.7 °F 76% 30.22 in 10.0 mi SSE 5.8 mph - N/A   Clear
2:34 AM 51.4 °F 45.1 °F 79% 30.22 in 10.0 mi South 4.6 mph - N/A   Clear
2:55 AM 50.7 °F 45.5 °F 82% 30.22 in 10.0 mi South 5.8 mph - N/A   Clear
3:15 AM 50.0 °F 44.8 °F 82% 30.22 in 10.0 mi Calm Calm - N/A   Clear
3:34 AM 50.5 °F 45.1 °F 82% 30.22 in 10.0 mi Calm Calm - N/A   Clear
3:55 AM 49.3 °F 44.8 °F 84% 30.22 in 10.0 mi Calm Calm - N/A   Clear
4:15 AM 47.8 °F 45.0 °F 90% 30.22 in 10.0 mi Calm Calm - N/A   Clear
4:34 AM 46.8 °F 42.1 °F 84% 30.24 in 10.0 mi Calm Calm - N/A   Clear
4:55 AM 46.0 °F 45.1 °F 97% 30.24 in 10.0 mi Calm Calm - N/A   Clear
5:15 AM 47.3 °F 46.9 °F 99% 30.25 in 10.0 mi Calm Calm - N/A   Clear
5:34 AM 45.1 °F 45.1 °F 100% 30.25 in 10.0 mi Calm Calm - N/A   Clear
5:55 AM 44.8 °F 44.8 °F 100% 30.26 in 10.0 mi Calm Calm - N/A   Clear
6:15 AM 44.1 °F 44.1 °F 100% 30.26 in 10.0 mi Calm Calm - N/A   Clear
6:34 AM 44.2 °F 44.2 °F 100% 30.26 in 10.0 mi Calm Calm - N/A   Clear
6:55 AM 43.7 °F 43.5 °F 99% 30.27 in 10.0 mi Calm Calm - N/A   Clear
7:15 AM 43.0 °F 43.0 °F 100% 30.27 in 10.0 mi Calm Calm - N/A   Clear
7:34 AM 42.8 °F 42.8 °F 100% 30.28 in 10.0 mi Calm Calm - N/A   Clear
7:55 AM 42.8 °F 42.8 °F 100% 30.28 in 10.0 mi Calm Calm - N/A   Clear
8:15 AM 43.5 °F 43.5 °F 100% 30.28 in 10.0 mi Calm Calm - N/A   Clear
8:34 AM 43.9 °F 43.7 °F 99% 30.29 in 10.0 mi Calm Calm - N/A   Clear
8:55 AM 46.4 °F 46.4 °F 100% 30.29 in 7.0 mi Calm Calm - N/A   Clear
9:15 AM 47.7 °F 47.7 °F 100% 30.30 in 10.0 mi Calm Calm - N/A   Clear
9:34 AM 49.5 °F 48.9 °F 98% 30.30 in 10.0 mi Calm Calm - N/A   Clear
9:55 AM 51.8 °F 50.4 °F 95% 30.29 in 10.0 mi Calm Calm - N/A   Clear
10:15 AM 55.0 °F 48.7 °F 79% 30.30 in 10.0 mi South 6.9 mph - N/A   Clear
10:34 AM 58.6 °F 48.2 °F 68% 30.29 in 10.0 mi SSW 6.9 mph - N/A   Clear
10:55 AM 61.2 °F 47.1 °F 60% 30.29 in 10.0 mi SSW 8.1 mph - N/A   Clear
11:15 AM 62.6 °F 46.8 °F 56% 30.29 in 10.0 mi SSW 8.1 mph - N/A   Clear
11:34 AM 63.9 °F 46.8 °F 54% 30.29 in 10.0 mi SSW 8.1 mph - N/A   Clear
12:14 PM 66.4 °F 45.5 °F 47% 30.28 in 10.0 mi South 5.8 mph - N/A   Clear
12:35 PM 66.7 °F 44.8 °F 45% 30.28 in 10.0 mi SW 3.5 mph - N/A   Clear
12:55 PM 67.5 °F 45.9 °F 46% 30.27 in 10.0 mi SW 5.8 mph - N/A   Clear
1:14 PM 67.6 °F 46.9 °F 47% 30.27 in 10.0 mi South 6.9 mph - N/A   Clear
1:35 PM 68.0 °F 47.1 °F 47% 30.26 in 10.0 mi SSE 8.1 mph - N/A   Clear
1:55 PM 68.0 °F 46.8 °F 47% 30.26 in 10.0 mi SSE 5.8 mph - N/A   Clear
2:14 PM 68.2 °F 48.6 °F 49% 30.25 in 10.0 mi SSE 6.9 mph - N/A   Clear
2:35 PM 68.5 °F 48.0 °F 48% 30.24 in 10.0 mi SE 3.5 mph 16.1 mph N/A   Clear
2:55 PM 69.1 °F 47.1 °F 45% 30.24 in 10.0 mi SSW 4.6 mph 16.1 mph N/A   Clear
3:14 PM 69.1 °F 48.0 °F 47% 30.23 in 10.0 mi SE 3.5 mph - N/A   Clear
3:35 PM 69.4 °F 47.8 °F 46% 30.23 in 10.0 mi SE 6.9 mph - N/A   Clear
3:55 PM 69.1 °F 46.4 °F 44% 30.23 in 10.0 mi SE 9.2 mph - N/A   Clear
4:14 PM 69.6 °F 46.6 °F 44% 30.22 in 10.0 mi SSE 9.2 mph - N/A   Clear
4:35 PM 69.4 °F 47.5 °F 45% 30.22 in 10.0 mi South 4.6 mph - N/A   Clear
4:55 PM 68.9 °F 46.9 °F 45% 30.21 in 10.0 mi SSW 5.8 mph 18.4 mph N/A   Clear
5:14 PM 68.9 °F 46.6 °F 45% 30.21 in 10.0 mi SSW 9.2 mph - N/A   Clear
5:35 PM 68.5 °F 45.7 °F 44% 30.21 in 10.0 mi SSE 8.1 mph - N/A   Clear
5:55 PM 68.2 °F 46.0 °F 45% 30.21 in 10.0 mi SSE 5.8 mph - N/A   Clear
6:14 PM 66.9 °F 47.1 °F 49% 30.21 in 10.0 mi SSE 3.5 mph - N/A   Clear
6:35 PM 66.6 °F 45.9 °F 47% 30.21 in 10.0 mi SE 5.8 mph - N/A   Clear
6:55 PM 63.3 °F 48.4 °F 58% 30.19 in 10.0 mi ESE 8.1 mph - N/A   Clear
7:14 PM 61.7 °F 47.7 °F 60% 30.20 in 10.0 mi ESE 6.9 mph - N/A   Clear
7:35 PM 60.3 °F 47.3 °F 62% 30.20 in 10.0 mi Calm Calm - N/A   Clear
7:55 PM 57.2 °F 47.3 °F 69% 30.21 in 10.0 mi Calm Calm - N/A   Clear
8:14 PM 56.1 °F 47.5 °F 73% 30.20 in 10.0 mi Calm Calm - N/A   Clear
8:35 PM 53.2 °F 47.3 °F 80% 30.21 in 10.0 mi Calm Calm - N/A   Clear
8:55 PM 53.1 °F 46.8 °F 79% 30.21 in 10.0 mi West 5.8 mph - N/A   Clear
9:14 PM 52.2 °F 47.3 °F 83% 30.21 in 10.0 mi West 4.6 mph - N/A   Clear
9:35 PM 50.9 °F 46.4 °F 85% 30.21 in 10.0 mi NW 4.6 mph - N/A   Clear
9:55 PM 50.2 °F 47.7 °F 91% 30.21 in 10.0 mi Calm Calm - N/A   Clear
10:14 PM 49.6 °F 48.4 °F 95% 30.21 in 10.0 mi Calm Calm - N/A   Clear
10:35 PM 48.7 °F 47.7 °F 96% 30.21 in 10.0 mi Calm Calm - N/A   Clear
10:55 PM 48.2 °F 47.5 °F 97% 30.22 in 10.0 mi West 4.6 mph - N/A   Clear
11:14 PM 47.5 °F 47.3 °F 99% 30.22 in 10.0 mi Calm Calm - N/A   Clear
11:35 PM 46.0 °F 46.0 °F 100% 30.22 in 10.0 mi Calm Calm - N/A   Clear
11:55 PM 45.3 °F 45.3 °F 100% 30.22 in 10.0 mi Calm Calm - N/A   Clear